Location: Cardiff
(53.7833°N, 113.6000°W)
Time: 06:43:29
(UTC+00:00)

NOAA 15 - Pass Details

Date: 06 December 2023
Orbit: 797 x 810 km, 98.6° (Epoch: 04 March)

Event Time Altitude Azimuth Distance (km) Brightness Sun altitude
Rises 03:55:16 0° 217° (SW) 3,319 8.0 -39.8°
Reaches altitude 10° 03:58:39 10° 240° (WSW) 2,392 7.4 -40.3°
Maximum altitude 04:01:40 15° 275° (W) 2,048 7.2 -40.7°
Drops below altitude 10° 04:04:42 10° 310° (NW) 2,398 7.6 -41.2°
Sets 04:08:07 0° 333° (NNW) 3,332 8.3 -41.6°
